| time (UTC) | temp C | wind direction | speed KPH | gust KPH | rain 1hr cm | rain 24hr cm | rain mn cm | humidity % | barometer mb |
| 20260901112606 | 21 | 122 | 0.0 | 0.0 | 0.05 | 1.32 | 1.19 | 97 | 1016.8 |
| 20260901111605 | 21 | 122 | 0.0 | 0.0 | 0.05 | 1.32 | 1.19 | 97 | 1016.9 |
| 20260901111104 | 21 | 122 | 0.0 | 0.0 | 0.05 | 1.32 | 1.19 | 97 | 1017.0 |
| 20260901110605 | 21 | 122 | 0.0 | 0.0 | 0.05 | 1.32 | 1.19 | 97 | 1017.2 |
| 20260901110104 | 21 | 122 | 0.0 | 0.0 | 0.05 | 1.32 | 1.19 | 97 | 1017.0 |
| 20260901105604 | 21 | 122 | 0.0 | 0.0 | 0.05 | 1.32 | 1.19 | 96 | 1017.0 |
| 20260901105104 | 21 | 122 | 0.0 | 0.0 | 0.05 | 1.32 | 1.19 | 96 | 1017.0 |
| 20260901104106 | 20 | 122 | 0.0 | 0.0 | 0.03 | 1.30 | 1.17 | 96 | 1017.0 |
| 20260901103604 | 20 | 122 | 0.0 | 0.0 | 0.03 | 1.30 | 1.17 | 96 | 1017.1 |
| 20260901103104 | 20 | 122 | 0.0 | 0.0 | 0.00 | 1.27 | 1.14 | 96 | 1017.1 |
| 20260901102604 | 20 | 122 | 0.0 | 0.0 | 0.00 | 1.27 | 1.14 | 96 | 1017.1 |
| 20260901102105 | 20 | 122 | 0.0 | 0.0 | 0.00 | 1.27 | 1.14 | 96 | 1017.0 |
| 20260901101604 | 20 | 122 | 0.0 | 0.0 | 0.00 | 1.27 | 1.14 | 96 | 1016.9 |
| 20260901100605 | 20 | 122 | 0.0 | 0.0 | 0.00 | 1.27 | 1.14 | 96 | 1017.0 |
| 20260901100104 | 20 | 122 | 0.0 | 0.0 | 0.00 | 1.27 | 1.14 | 96 | 1016.9 |
| 20260901095605 | 20 | 122 | 0.0 | 0.0 | 0.00 | 1.27 | 1.14 | 96 | 1016.9 |
| 20260901095105 | 20 | 122 | 0.0 | 0.0 | 0.00 | 1.27 | 1.14 | 96 | 1016.8 |
| 20260901094604 | 20 | 122 | 0.0 | 0.0 | 0.00 | 1.27 | 1.14 | 96 | 1016.8 |
| 20260901094104 | 20 | 122 | 0.0 | 0.0 | 0.00 | 1.27 | 1.14 | 96 | 1016.8 |
| 20260901093604 | 20 | 122 | 0.0 | 0.0 | 0.00 | 1.27 | 1.14 | 96 | 1016.8 |
| 20260901093105 | 20 | 122 | 0.0 | 0.0 | 0.00 | 1.27 | 1.14 | 96 | 1017.0 |
| 20260901091604 | 20 | 122 | 0.0 | 0.0 | 0.00 | 1.27 | 1.14 | 96 | 1016.9 |
| 20260901091104 | 20 | 122 | 0.0 | 0.0 | 0.00 | 1.27 | 1.14 | 96 | 1016.9 |
| 20260901090606 | 20 | 122 | 0.0 | 0.0 | 0.00 | 1.27 | 1.14 | 96 | 1016.9 |
| 20260901090104 | 20 | 122 | 0.0 | 0.0 | 0.00 | 1.27 | 1.14 | 96 | 1017.0 |
| 20260901085604 | 20 | 122 | 0.0 | 0.0 | 0.00 | 1.27 | 1.14 | 96 | 1017.0 |
| 20260901085104 | 20 | 122 | 0.0 | 0.0 | 0.00 | 1.27 | 1.14 | 96 | 1017.0 |
| 20260901084604 | 20 | 122 | 0.0 | 0.0 | 0.00 | 1.27 | 1.14 | 96 | 1017.0 |
| 20260901084105 | 20 | 122 | 0.0 | 0.0 | 0.00 | 1.27 | 1.14 | 96 | 1017.0 |
| 20260901082604 | 20 | 122 | 0.0 | 0.0 | 0.00 | 1.27 | 1.14 | 96 | 1017.2 |
| 20260901082104 | 20 | 122 | 0.0 | 0.0 | 0.00 | 1.27 | 1.14 | 96 | 1017.3 |
| 20260901081106 | 20 | 122 | 0.0 | 0.0 | 0.00 | 1.27 | 1.14 | 96 | 1017.2 |
| 20260901080605 | 20 | 122 | 0.0 | 0.0 | 0.00 | 1.27 | 1.14 | 96 | 1017.3 |
| 20260901080104 | 20 | 122 | 0.0 | 0.0 | 0.00 | 1.27 | 1.14 | 96 | 1017.3 |
| 20260901075604 | 20 | 122 | 0.0 | 0.0 | 0.00 | 1.27 | 1.14 | 96 | 1017.3 |
| 20260901075105 | 20 | 122 | 0.0 | 0.0 | 0.00 | 1.27 | 1.14 | 96 | 1017.4 |
| 20260901074604 | 20 | 122 | 0.0 | 0.0 | 0.00 | 1.27 | 1.14 | 96 | 1017.5 |
| 20260901074104 | 20 | 122 | 0.0 | 0.0 | 0.00 | 1.27 | 1.14 | 96 | 1017.6 |
| 20260901073604 | 20 | 122 | 0.0 | 0.0 | 0.00 | 1.27 | 1.14 | 96 | 1017.7 |
| 20260901073104 | 20 | 122 | 0.0 | 0.0 | 0.03 | 1.27 | 1.14 | 96 | 1017.7 |
| 20260901072604 | 20 | 122 | 0.0 | 0.0 | 0.03 | 1.27 | 1.14 | 96 | 1017.7 |
| 20260901072105 | 20 | 122 | 0.0 | 0.0 | 0.03 | 1.27 | 1.14 | 96 | 1017.6 |
| 20260901071605 | 20 | 122 | 0.0 | 0.0 | 0.03 | 1.27 | 1.14 | 96 | 1017.6 |
| 20260901071104 | 20 | 122 | 0.0 | 0.0 | 0.03 | 1.27 | 1.14 | 96 | 1017.6 |
| 20260901070604 | 20 | 122 | 0.0 | 0.0 | 0.03 | 1.27 | 1.14 | 96 | 1017.6 |
| 20260901070105 | 20 | 122 | 0.0 | 0.0 | 0.03 | 1.27 | 1.14 | 96 | 1017.8 |
| 20260901065604 | 20 | 122 | 0.0 | 0.0 | 0.03 | 1.27 | 1.14 | 96 | 1017.8 |
| 20260901065105 | 20 | 122 | 0.0 | 0.0 | 0.05 | 1.27 | 1.14 | 96 | 1017.9 |
| 20260901064605 | 20 | 122 | 0.0 | 0.0 | 0.05 | 1.27 | 1.14 | 96 | 1018.0 |
| 20260901064105 | 20 | 122 | 0.0 | 0.0 | 0.08 | 1.27 | 1.14 | 96 | 1018.0 |
| 20260901063105 | 20 | 122 | 0.0 | 0.0 | 0.08 | 1.24 | 1.12 | 96 | 1018.0 |
| 20260901062604 | 20 | 122 | 0.0 | 1.6 | 0.13 | 1.24 | 1.12 | 96 | 1018.0 |
| 20260901061604 | 20 | 122 | 0.0 | 0.0 | 0.15 | 1.24 | 1.12 | 96 | 1018.1 |
| 20260901061104 | 20 | 122 | 0.0 | 0.0 | 0.18 | 1.24 | 1.12 | 95 | 1018.1 |
| 20260901060604 | 20 | 122 | 0.0 | 0.0 | 0.23 | 1.24 | 1.12 | 95 | 1018.2 |
| 20260901060104 | 20 | 122 | 0.0 | 0.0 | 0.30 | 1.24 | 1.12 | 95 | 1018.2 |
| 20260901055604 | 20 | 122 | 0.0 | 0.0 | 0.38 | 1.24 | 1.12 | 95 | 1018.3 |
| 20260901055104 | 20 | 122 | 0.0 | 1.6 | 0.41 | 1.22 | 1.09 | 95 | 1018.3 |
| 20260901054604 | 20 | 122 | 1.6 | 4.8 | 0.51 | 1.22 | 1.09 | 95 | 1018.2 |
| 20260901054105 | 20 | 121 | 0.0 | 4.8 | 0.58 | 1.19 | 1.07 | 95 | 1018.3 |
| 20260901053605 | 20 | 121 | 3.2 | 4.8 | 0.71 | 1.17 | 1.04 | 95 | 1018.4 |
| 20260901052608 | 20 | 261 | 1.6 | 4.8 | 0.71 | 1.12 | 0.99 | 95 | 1018.6 |
| 20260901052104 | 20 | 261 | 3.2 | 4.8 | 0.74 | 1.12 | 0.99 | 95 | 1018.5 |
| 20260901051104 | 20 | 256 | 0.0 | 3.2 | 0.76 | 1.07 | 0.94 | 95 | 1018.5 |
| 20260901050604 | 20 | 256 | 1.6 | 3.2 | 0.79 | 1.02 | 0.89 | 95 | 1018.5 |
| 20260901050105 | 20 | 256 | 0.0 | 1.6 | 0.79 | 0.94 | 0.81 | 95 | 1018.4 |
| 20260901045604 | 20 | 256 | 0.0 | 0.0 | 0.61 | 0.86 | 0.74 | 95 | 1018.4 |
| 20260901045104 | 20 | 256 | 0.0 | 3.2 | 0.56 | 0.81 | 0.69 | 95 | 1018.4 |
| 20260901044605 | 20 | 256 | 0.0 | 3.2 | 0.48 | 0.71 | 0.58 | 95 | 1018.5 |
| 20260901043604 | 20 | 256 | 0.0 | 0.0 | 0.25 | 0.46 | 0.33 | 95 | 1018.5 |
| 20260901043104 | 20 | 256 | 0.0 | 0.0 | 0.25 | 0.43 | 0.30 | 94 | 1018.5 |
| 20260901042604 | 21 | 256 | 0.0 | 1.6 | 0.25 | 0.41 | 0.28 | 94 | 1018.5 |
| 20260901042104 | 21 | 256 | 0.0 | 0.0 | 0.23 | 0.38 | 0.25 | 94 | 1018.6 |
| 20260901041604 | 21 | 256 | 0.0 | 0.0 | 0.20 | 0.36 | 0.23 | 94 | 1018.6 |
| 20260901041105 | 21 | 256 | 0.0 | 0.0 | 0.15 | 0.30 | 0.18 | 94 | 1018.7 |
| 20260901040604 | 21 | 256 | 0.0 | 0.0 | 0.08 | 0.23 | 0.10 | 94 | 1018.7 |
| 20260901040104 | 21 | 256 | 0.0 | 0.0 | 0.00 | 0.15 | 0.03 | 94 | 1018.7 |
| 20260901035104 | 21 | 256 | 0.0 | 0.0 | 0.13 | 0.13 | 0.13 | 94 | 1018.8 |
| 20260901034604 | 21 | 256 | 0.0 | 0.0 | 0.10 | 0.10 | 0.10 | 94 | 1018.8 |
| 20260901034105 | 21 | 256 | 0.0 | 0.0 | 0.10 | 0.10 | 0.10 | 94 | 1018.8 |
| 20260901033604 | 21 | 256 | 0.0 | 0.0 | 0.08 | 0.08 | 0.08 | 94 | 1018.8 |
| 20260901033104 | 21 | 256 | 0.0 | 0.0 | 0.05 | 0.05 | 0.05 | 94 | 1018.8 |
| 20260901032604 | 21 | 256 | 0.0 | 0.0 | 0.03 | 0.03 | 0.03 | 94 | 1018.8 |
| 20260901032104 | 21 | 256 | 0.0 | 0.0 | 0.03 | 0.03 | 0.03 | 94 | 1018.9 |
| 20260901031604 | 21 | 256 | 0.0 | 0.0 | 0.03 | 0.03 | 0.03 | 94 | 1018.9 |
| 20260901031104 | 21 | 256 | 0.0 | 0.0 | 0.03 | 0.03 | 0.03 | 93 | 1018.9 |
| 20260901030605 | 21 | 256 | 0.0 | 0.0 | 0.03 | 0.03 | 0.03 | 93 | 1018.8 |
| 20260901030104 | 21 | 256 | 0.0 | 0.0 | 0.03 | 0.03 | 0.03 | 93 | 1018.9 |
| 20260901025604 | 21 | 256 | 1.6 | 3.2 | 0.00 | 0.00 | 0.00 | 93 | 1018.8 |
| 20260901025104 | 21 | 256 | 0.0 | 0.0 | 0.00 | 0.00 | 0.00 | 93 | 1018.9 |
| 20260901024604 | 21 | 256 | 0.0 | 0.0 | 0.00 | 0.00 | 0.00 | 93 | 1019.1 |
| 20260901024104 | 21 | 256 | 0.0 | 1.6 | 0.00 | 0.00 | 0.00 | 93 | 1019.0 |
| 20260901023604 | 21 | 256 | 0.0 | 1.6 | 0.00 | 0.00 | 0.00 | 93 | 1019.0 |
| 20260901022105 | 21 | 256 | 0.0 | 0.0 | 0.00 | 0.00 | 0.00 | 93 | 1019.2 |
| 20260901021604 | 21 | 256 | 0.0 | 0.0 | 0.00 | 0.00 | 0.00 | 93 | 1019.2 |
| 20260901021104 | 21 | 256 | 0.0 | 0.0 | 0.00 | 0.00 | 0.00 | 93 | 1019.2 |
| 20260901020605 | 21 | 256 | 0.0 | 0.0 | 0.00 | 0.00 | 0.00 | 93 | 1019.2 |
| 20260901020105 | 21 | 256 | 0.0 | 0.0 | 0.00 | 0.00 | 0.00 | 93 | 1019.2 |
| 20260901015604 | 21 | 256 | 0.0 | 0.0 | 0.00 | 0.00 | 0.00 | 93 | 1019.1 |
| 20260901015104 | 21 | 256 | 0.0 | 0.0 | 0.00 | 0.00 | 0.00 | 93 | 1019.2 |
| 20260901014604 | 21 | 256 | 0.0 | 0.0 | 0.00 | 0.03 | 0.00 | 92 | 1019.1 |
| 20260901014105 | 21 | 256 | 0.0 | 0.0 | 0.00 | 0.03 | 0.00 | 92 | 1019.2 |
| 20260901013604 | 21 | 256 | 0.0 | 0.0 | 0.00 | 0.03 | 0.00 | 92 | 1019.1 |
| 20260901013104 | 21 | 256 | 0.0 | 0.0 | 0.00 | 0.05 | 0.00 | 92 | 1019.1 |
| 20260901012605 | 21 | 256 | 0.0 | 0.0 | 0.00 | 0.05 | 0.00 | 92 | 1019.2 |
| 20260901012104 | 21 | 256 | 0.0 | 0.0 | 0.00 | 0.05 | 0.00 | 92 | 1019.2 |
| 20260901011605 | 21 | 256 | 0.0 | 0.0 | 0.00 | 0.05 | 0.00 | 92 | 1019.3 |
| 20260901011104 | 21 | 256 | 0.0 | 0.0 | 0.00 | 0.05 | 0.00 | 92 | 1019.3 |
| 20260901010604 | 21 | 256 | 0.0 | 0.0 | 0.00 | 0.05 | 0.00 | 92 | 1019.3 |
| 20260901010105 | 21 | 256 | 0.0 | 0.0 | 0.00 | 0.05 | 0.00 | 92 | 1019.2 |
| 20260901005604 | 21 | 256 | 0.0 | 0.0 | 0.00 | 0.05 | 0.00 | 92 | 1019.3 |
| 20260901005104 | 21 | 256 | 0.0 | 0.0 | 0.00 | 0.05 | 0.00 | 91 | 1019.2 |
| 20260901004604 | 21 | 256 | 0.0 | 0.0 | 0.00 | 0.05 | 0.00 | 91 | 1019.3 |
| 20260901003605 | 21 | 256 | 0.0 | 0.0 | 0.00 | 0.05 | 0.00 | 91 | 1019.4 |
| 20260901003106 | 21 | 256 | 0.0 | 3.2 | 0.00 | 0.05 | 0.00 | 91 | 1019.4 |
| 20260901002604 | 21 | 256 | 0.0 | 0.0 | 0.00 | 0.05 | 0.00 | 90 | 1019.3 |
| 20260901001604 | 21 | 256 | 0.0 | 4.8 | 0.00 | 0.08 | 0.00 | 90 | 1019.3 |
| 20260901000605 | 21 | 256 | 1.6 | 4.8 | 0.00 | 0.08 | 0.00 | 89 | 1019.2 |
| 20260831235604 | 22 | 256 | 0.0 | 0.0 | 0.00 | 0.08 | 0.00 | 89 | 1019.3 |
| 20260831234604 | 22 | 256 | 0.0 | 0.0 | 0.00 | 0.08 | 0.00 | 89 | 1019.2 |
| 20260831234104 | 22 | 256 | 0.0 | 0.0 | 0.00 | 0.08 | 0.00 | 89 | 1019.2 |
| 20260831233104 | 22 | 256 | 0.0 | 0.0 | 0.00 | 0.08 | 0.00 | 88 | 1019.1 |
| 20260831232104 | 22 | 256 | 0.0 | 0.0 | 0.00 | 0.08 | 0.00 | 88 | 1019.2 |
| 20260831231104 | 22 | 256 | 0.0 | 0.0 | 0.00 | 0.08 | 0.00 | 87 | 1019.3 |
| 20260831230604 | 22 | 256 | 0.0 | 0.0 | 0.00 | 0.08 | 0.00 | 88 | 1019.4 |
| 20260831230104 | 22 | 256 | 0.0 | 0.0 | 0.00 | 0.08 | 0.00 | 88 | 1019.5 |
| 20260831225604 | 22 | 256 | 0.0 | 0.0 | 0.00 | 0.08 | 0.00 | 87 | 1019.5 |
| 20260831225105 | 22 | 256 | 0.0 | 0.0 | 0.00 | 0.08 | 0.00 | 87 | 1019.6 |
| 20260831224628 | 22 | 256 | 0.0 | 0.0 | 0.00 | 0.08 | 0.00 | 87 | 1019.5 |
| 20260831223604 | 22 | 256 | 0.0 | 0.0 | 0.00 | 0.08 | 0.00 | 87 | 1019.6 |
| 20260831223104 | 22 | 256 | 3.2 | 4.8 | 0.00 | 0.08 | 0.00 | 86 | 1019.6 |
| 20260831221604 | 22 | 256 | 1.6 | 4.8 | 0.00 | 0.08 | 0.00 | 87 | 1019.6 |
| 20260831221105 | 22 | 256 | 0.0 | 0.0 | 0.00 | 0.08 | 0.00 | 87 | 1019.5 |
| 20260831220604 | 22 | 256 | 0.0 | 0.0 | 0.00 | 0.08 | 0.00 | 87 | 1019.5 |
| 20260831215605 | 22 | 256 | 3.2 | 4.8 | 0.00 | 0.08 | 0.00 | 87 | 1019.7 |
| 20260831215104 | 22 | 256 | 1.6 | 4.8 | 0.00 | 0.08 | 0.00 | 87 | 1019.8 |
| 20260831214104 | 22 | 256 | 0.0 | 3.2 | 0.00 | 0.08 | 0.00 | 86 | 1019.7 |
| 20260831213604 | 22 | 256 | 3.2 | 4.8 | 0.00 | 0.08 | 0.00 | 86 | 1019.6 |
| 20260831213104 | 22 | 256 | 1.6 | 4.8 | 0.00 | 0.08 | 0.00 | 86 | 1019.7 |
| 20260831212604 | 22 | 255 | 3.2 | 9.7 | 0.00 | 0.08 | 0.00 | 86 | 1019.7 |
| 20260831211105 | 23 | 239 | 1.6 | 9.7 | 0.00 | 0.08 | 0.00 | 83 | 1019.7 |
| 20260831210105 | 23 | 225 | 0.0 | 0.0 | 0.00 | 0.08 | 0.00 | 81 | 1019.7 |
| 20260831205604 | 23 | 225 | 0.0 | 1.6 | 0.00 | 0.08 | 0.00 | 80 | 1019.6 |
| 20260831205104 | 23 | 225 | 0.0 | 0.0 | 0.00 | 0.08 | 0.00 | 79 | 1019.6 |
| 20260831204604 | 23 | 225 | 0.0 | 1.6 | 0.00 | 0.08 | 0.00 | 80 | 1019.6 |
| 20260831203604 | 23 | 225 | 0.0 | 3.2 | 0.00 | 0.08 | 0.00 | 79 | 1019.6 |
| 20260831203104 | 24 | 160 | 0.0 | 0.0 | 0.00 | 0.08 | 0.00 | 80 | 1019.7 |
| 20260831202604 | 24 | 160 | 0.0 | 4.8 | 0.00 | 0.08 | 0.00 | 79 | 1019.5 |
| 20260831202104 | 24 | 160 | 3.2 | 4.8 | 0.00 | 0.08 | 0.00 | 78 | 1019.5 |
| 20260831201604 | 24 | 252 | 0.0 | 0.0 | 0.00 | 0.08 | 0.00 | 78 | 1019.4 |
| 20260831201104 | 24 | 252 | 0.0 | 0.0 | 0.00 | 0.08 | 0.00 | 79 | 1019.4 |
| 20260831200604 | 24 | 252 | 0.0 | 0.0 | 0.00 | 0.08 | 0.00 | 78 | 1019.4 |
| 20260831195604 | 24 | 252 | 0.0 | 0.0 | 0.00 | 0.08 | 0.00 | 78 | 1019.6 |
| 20260831195105 | 24 | 252 | 1.6 | 3.2 | 0.00 | 0.08 | 0.00 | 79 | 1019.8 |
| 20260831193605 | 24 | 252 | 0.0 | 0.0 | 0.00 | 0.08 | 0.00 | 76 | 1020.1 |
| 20260831193103 | 24 | 252 | 0.0 | 0.0 | 0.00 | 0.08 | 0.00 | 76 | 1020.0 |
| 20260831192604 | 24 | 252 | 0.0 | 0.0 | 0.00 | 0.08 | 0.00 | 78 | 1020.1 |
| 20260831192104 | 23 | 252 | 0.0 | 3.2 | 0.00 | 0.08 | 0.00 | 78 | 1020.2 |
| 20260831191604 | 24 | 252 | 0.0 | 3.2 | 0.00 | 0.08 | 0.00 | 77 | 1020.3 |
| 20260831191104 | 24 | 252 | 0.0 | 3.2 | 0.00 | 0.08 | 0.00 | 77 | 1020.4 |
| 20260831190104 | 24 | 252 | 1.6 | 4.8 | 0.00 | 0.08 | 0.00 | 76 | 1020.4 |
| 20260831185604 | 24 | 252 | 0.0 | 3.2 | 0.00 | 0.08 | 0.00 | 75 | 1020.5 |
| 20260831185104 | 24 | 252 | 0.0 | 3.2 | 0.00 | 0.08 | 0.00 | 76 | 1020.6 |
| 20260831184605 | 24 | 252 | 1.6 | 4.8 | 0.00 | 0.08 | 0.00 | 76 | 1020.6 |
| 20260831184105 | 25 | 252 | 1.6 | 3.2 | 0.00 | 0.08 | 0.00 | 76 | 1020.6 |
| 20260831183104 | 25 | 250 | 0.0 | 4.8 | 0.00 | 0.08 | 0.00 | 76 | 1020.7 |
| 20260831182604 | 25 | 250 | 0.0 | 1.6 | 0.00 | 0.08 | 0.00 | 75 | 1020.7 |
| 20260831182105 | 25 | 250 | 0.0 | 1.6 | 0.00 | 0.08 | 0.00 | 74 | 1020.7 |
| 20260831181604 | 25 | 250 | 0.0 | 0.0 | 0.00 | 0.08 | 0.00 | 74 | 1020.8 |
| 20260831181104 | 25 | 250 | 0.0 | 3.2 | 0.00 | 0.08 | 0.00 | 73 | 1020.9 |
| 20260831180605 | 25 | 177 | 0.0 | 1.6 | 0.00 | 0.08 | 0.00 | 75 | 1020.8 |
| 20260831180105 | 24 | 177 | 0.0 | 1.6 | 0.00 | 0.08 | 0.00 | 75 | 1020.8 |
| 20260831175605 | 25 | 177 | 1.6 | 4.8 | 0.00 | 0.08 | 0.00 | 77 | 1021.0 |
| 20260831174604 | 25 | 151 | 0.0 | 3.2 | 0.00 | 0.08 | 0.00 | 76 | 1021.0 |
| 20260831174104 | 24 | 151 | 0.0 | 3.2 | 0.00 | 0.08 | 0.00 | 77 | 1021.1 |
| 20260831173605 | 24 | 151 | 0.0 | 3.2 | 0.00 | 0.08 | 0.00 | 76 | 1021.2 |
| 20260831172604 | 24 | 151 | 0.0 | 4.8 | 0.00 | 0.08 | 0.00 | 76 | 1021.2 |
| 20260831172105 | 24 | 151 | 0.0 | 3.2 | 0.00 | 0.08 | 0.00 | 77 | 1021.3 |
| 20260831171604 | 24 | 151 | 0.0 | 0.0 | 0.00 | 0.08 | 0.00 | 76 | 1021.3 |
| 20260831171105 | 24 | 151 | 0.0 | 0.0 | 0.00 | 0.08 | 0.00 | 77 | 1021.3 |
| 20260831170104 | 24 | 151 | 0.0 | 0.0 | 0.00 | 0.08 | 0.00 | 75 | 1021.2 |
| 20260831165605 | 24 | 151 | 0.0 | 3.2 | 0.00 | 0.08 | 0.00 | 76 | 1021.2 |
| 20260831165104 | 24 | 151 | 0.0 | 3.2 | 0.00 | 0.08 | 0.00 | 77 | 1021.2 |
| 20260831164605 | 24 | 151 | 1.6 | 4.8 | 0.00 | 0.08 | 0.00 | 77 | 1021.2 |
| 20260831164105 | 24 | 151 | 0.0 | 0.0 | 0.00 | 0.08 | 0.00 | 76 | 1021.2 |
| 20260831163605 | 24 | 151 | 1.6 | 4.8 | 0.00 | 0.08 | 0.00 | 76 | 1021.1 |
| 20260831163105 | 24 | 151 | 1.6 | 3.2 | 0.00 | 0.08 | 0.00 | 76 | 1021.2 |
| 20260831162604 | 24 | 151 | 3.2 | 8.0 | 0.00 | 0.08 | 0.00 | 76 | 1021.2 |
| 20260831162105 | 24 | 176 | 3.2 | 4.8 | 0.00 | 0.08 | 0.00 | 76 | 1021.3 |
| 20260831161605 | 24 | 182 | 3.2 | 4.8 | 0.00 | 0.08 | 0.00 | 77 | 1021.3 |
| 20260831161104 | 24 | 182 | 1.6 | 12.9 | 0.00 | 0.08 | 0.00 | 75 | 1021.4 |
| 20260831160604 | 25 | 207 | 1.6 | 4.8 | 0.00 | 0.08 | 0.00 | 74 | 1021.5 |
| 20260831155604 | 24 | 133 | 3.2 | 12.9 | 0.00 | 0.08 | 0.00 | 75 | 1021.5 |
| 20260831154605 | 25 | 357 | 0.0 | 3.2 | 0.00 | 0.08 | 0.00 | 76 | 1021.6 |
| 20260831154105 | 25 | 357 | 0.0 | 4.8 | 0.00 | 0.08 | 0.00 | 76 | 1021.6 |
| 20260831153604 | 24 | 316 | 1.6 | 4.8 | 0.00 | 0.08 | 0.00 | 76 | 1021.7 |
| 20260831153104 | 24 | 329 | 1.6 | 4.8 | 0.00 | 0.08 | 0.00 | 77 | 1021.7 |
| 20260831152604 | 24 | 64 | 3.2 | 8.0 | 0.00 | 0.08 | 0.00 | 77 | 1021.8 |
| 20260831151604 | 23 | 66 | 3.2 | 9.7 | 0.00 | 0.08 | 0.00 | 77 | 1021.7 |
| 20260831151104 | 23 | 110 | 1.6 | 4.8 | 0.00 | 0.08 | 0.00 | 78 | 1021.7 |
| 20260831150605 | 23 | 92 | 4.8 | 9.7 | 0.00 | 0.08 | 0.00 | 79 | 1021.7 |
| 20260831150104 | 23 | 131 | 3.2 | 9.7 | 0.00 | 0.08 | 0.00 | 80 | 1021.7 |
| 20260831145605 | 23 | 114 | 4.8 | 11.3 | 0.00 | 0.08 | 0.00 | 81 | 1021.7 |
| 20260831145104 | 22 | 35 | 3.2 | 8.0 | 0.00 | 0.08 | 0.00 | 81 | 1021.8 |
| 20260831144604 | 22 | 55 | 3.2 | 12.9 | 0.00 | 0.08 | 0.00 | 81 | 1021.8 |
| 20260831144105 | 22 | 89 | 3.2 | 4.8 | 0.00 | 0.08 | 0.00 | 81 | 1021.8 |
| 20260831143604 | 22 | 54 | 1.6 | 8.0 | 0.00 | 0.08 | 0.00 | 82 | 1021.9 |
| 20260831143104 | 22 | 11 | 4.8 | 9.7 | 0.00 | 0.08 | 0.00 | 81 | 1021.9 |
| 20260831142604 | 22 | 59 | 1.6 | 8.0 | 0.00 | 0.08 | 0.00 | 82 | 1021.9 |
| 20260831142105 | 22 | 106 | 1.6 | 4.8 | 0.00 | 0.08 | 0.00 | 82 | 1022.0 |
| 20260831141603 | 22 | 34 | 3.2 | 4.8 | 0.00 | 0.08 | 0.00 | 82 | 1022.0 |
| 20260831141104 | 22 | 100 | 4.8 | 11.3 | 0.00 | 0.08 | 0.00 | 83 | 1022.2 |
| 20260831140604 | 22 | 32 | 4.8 | 12.9 | 0.00 | 0.08 | 0.00 | 82 | 1022.1 |
| 20260831140104 | 22 | 81 | 3.2 | 4.8 | 0.00 | 0.08 | 0.00 | 84 | 1021.8 |
| 20260831135604 | 22 | 13 | 4.8 | 11.3 | 0.00 | 0.08 | 0.00 | 84 | 1021.7 |
| 20260831135104 | 22 | 61 | 3.2 | 8.0 | 0.00 | 0.08 | 0.00 | 85 | 1021.7 |
| 20260831134105 | 21 | 61 | 3.2 | 12.9 | 0.00 | 0.08 | 0.00 | 86 | 1021.8 |
| 20260831133104 | 21 | 97 | 3.2 | 9.7 | 0.00 | 0.08 | 0.00 | 88 | 1021.8 |
| 20260831132604 | 21 | 67 | 3.2 | 8.0 | 0.00 | 0.08 | 0.00 | 88 | 1021.8 |
| 20260831132105 | 21 | 25 | 3.2 | 9.7 | 0.00 | 0.08 | 0.00 | 89 | 1021.8 |
| 20260831131604 | 21 | 113 | 1.6 | 9.7 | 0.00 | 0.08 | 0.00 | 90 | 1021.7 |
| 20260831131104 | 20 | 113 | 1.6 | 9.7 | 0.00 | 0.08 | 0.00 | 90 | 1021.7 |
| 20260831130603 | 20 | 109 | 3.2 | 9.7 | 0.00 | 0.08 | 0.00 | 92 | 1021.9 |
| 20260831130104 | 20 | 125 | 4.8 | 12.9 | 0.00 | 0.08 | 0.00 | 92 | 1021.9 |
| 20260831125605 | 20 | 106 | 3.2 | 8.0 | 0.00 | 0.08 | 0.00 | 94 | 1021.9 |
| 20260831125104 | 20 | 17 | 1.6 | 8.0 | 0.00 | 0.08 | 0.00 | 95 | 1021.9 |
| 20260831124604 | 20 | 20 | 0.0 | 1.6 | 0.00 | 0.08 | 0.00 | 95 | 1021.8 |
| 20260831124104 | 20 | 20 | 0.0 | 1.6 | 0.00 | 0.08 | 0.00 | 95 | 1021.8 |
| 20260831123603 | 20 | 20 | 0.0 | 4.8 | 0.00 | 0.08 | 0.00 | 95 | 1021.6 |
| 20260831123104 | 20 | 255 | 0.0 | 1.6 | 0.00 | 0.08 | 0.00 | 95 | 1021.5 |
| 20260831122604 | 20 | 244 | 1.6 | 4.8 | 0.00 | 0.08 | 0.00 | 96 | 1021.6 |
| 20260831121104 | 19 | 258 | 0.0 | 0.0 | 0.00 | 0.08 | 0.00 | 96 | 1021.9 |
| 20260831120604 | 19 | 258 | 0.0 | 0.0 | 0.00 | 0.08 | 0.00 | 96 | 1021.9 |
| 20260831120104 | 19 | 258 | 0.0 | 0.0 | 0.00 | 0.08 | 0.00 | 96 | 1021.8 |
| 20260831115604 | 18 | 258 | 0.0 | 0.0 | 0.00 | 0.08 | 0.00 | 96 | 1021.7 |
| 20260831115105 | 18 | 258 | 0.0 | 0.0 | 0.00 | 0.08 | 0.00 | 96 | 1021.6 |
| 20260831114604 | 18 | 258 | 0.0 | 0.0 | 0.00 | 0.08 | 0.00 | 96 | 1021.8 |
| 20260831114103 | 18 | 258 | 0.0 | 0.0 | 0.00 | 0.08 | 0.00 | 96 | 1021.8 |
| 20260831113605 | 18 | 258 | 0.0 | 0.0 | 0.00 | 0.08 | 0.00 | 96 | 1021.7 |
| 20260831113103 | 18 | 258 | 0.0 | 0.0 | 0.00 | 0.08 | 0.00 | 96 | 1021.7 |